Location: Antioch
(38.0049°N, 121.8058°W)
Time: 06:13:03
(UTC+00:00)

Cosmos 2263 Rocket - Pass Details

Date: 11 February 2026
Orbit: 821 x 848 km, 71.0° (Epoch: 5 March)

Event Time Altitude Azimuth Distance (km) Brightness Sun altitude
Rises 14:17:52 0° 333° (NNW) 3,411 5.0 -9.2°
Reaches altitude 10° 14:20:21 10° 329° (NNW) 2,470 4.2 -8.7°
Maximum altitude 14:25:54 57° 252° (WSW) 980 2.3 -7.6°
Drops below altitude 10° 14:31:22 10° 175° (S) 2,438 4.8 -6.6°
Sets 14:33:49 0° 171° (S) 3,363 5.6 -6.1°
